Microsoft Bob Disk 6 Contents (3.5 Inch, 1.68 MB DMF)
  
PSS ID Number: Q129109
Article last modified on 05-23-1995
 
1.00
 
WINDOWS
 

-------------------------------------------------------------------
The information in this article applies to:
 
 - Microsoft Bob version 1.0
-------------------------------------------------------------------
 
SUMMARY
=======
 
The following is the directory and cabinet file listings of the 3.5-inch
Microsoft Bob Disk 6, plus EXTRACT.EXE Help information.
 
MORE INFORMATION
================
 
Disk 6 Directory Listing      Volume Label: BOB10USD6
-----------------------------------------------------
U6       CAB     1,716,224 01-30-95   6:34p
 
NOTE:  In the following listing, the "..." abreviates the name listed
       above it.
 
U6.CAB Listing
--------------
NOTEBOOK\FINANCE\FINANCE.MVB : Starts in cabinet u5.cab on disk 'Disk
5'
01-30-1995 10:07:28p A---        452 NOTEBOOK\FINANCE\USFLAG.WMF
01-30-1995 10:07:28p A---        592 NOTEBOOK\FINANCE\CANFLAG.WMF
01-30-1995 10:38:20a A---     24,682 NOTEBOOK\HOME\H01.WMF
01-30-1995 10:38:20a A---      9,576 NOTEBOOK\HOME\H02.WMF
01-30-1995 10:38:22a A---     17,578 NOTEBOOK\HOME\H03.WMF
01-30-1995 10:38:22a A---     10,452 NOTEBOOK\HOME\H04.WMF
01-30-1995 10:38:22a A---      9,626 NOTEBOOK\HOME\H05.WMF
01-30-1995 10:38:22a A---      6,418 NOTEBOOK\HOME\H06.WMF
01-30-1995 10:38:22a A---      5,534 NOTEBOOK\HOME\H07.WMF
01-30-1995 10:38:22a A---      4,488 NOTEBOOK\HOME\H11.WMF
01-30-1995 10:38:22a A---     16,812 NOTEBOOK\HOME\H12.WMF
01-30-1995 10:38:22a A---      3,362 NOTEBOOK\HOME\H15.WMF
01-30-1995 10:38:22a A---     10,174 NOTEBOOK\HOME\H17.WMF
01-30-1995 10:38:22a A---     10,026 NOTEBOOK\HOME\H18.WMF
01-30-1995 10:38:22a A---     11,848 NOTEBOOK\HOME\H19.WMF
01-30-1995 10:38:22a A---      4,378 NOTEBOOK\HOME\H21.WMF
01-30-1995 10:38:22a A---      8,824 NOTEBOOK\HOME\H25.WMF
01-30-1995 12:30:34a A---    917,504 NOTEBOOK\HOME\HOME.MDB
01-30-1995 11:49:50p A---    181,903 NOTEBOOK\HOME\HOME.BTN
01-30-1995  5:15:44p A---    338,219 NOTEBOOK\HOME\HOME.MVB
01-30-1995 10:38:28a A---     16,780 NOTEBOOK\HOME\HX03.WMF
01-30-1995 12:09:22a A---    786,432 SAFARI\SAFARI.MDB
01-30-1995  1:39:40a A---    221,806 SAFARI\SAFARI.EXE
01-30-1995  1:39:44a A---     27,136 SAFARI\GEO.TPR
01-30-1995 12:09:22a A---        545 SAFARI\SBSBATCH.PIF
01-30-1995 10:39:00a A---     69,796 SAFARI\SYSTEM\CLOCK.ANI
01-30-1995  5:43:30p A---     48,183 SAFARI\SYSTEM\GEOSOUND.ANI
01-30-1995 10:39:02a A---      5,199 SAFARI\SYSTEM\FLASHOR1.ANI
01-30-1995 10:39:02a A---      4,793 SAFARI\SYSTEM\FLASHVR1.ANI
01-30-1995 11:52:08p A---    304,572 SAFARI\SYSTEM\HANK.ACT
01-30-1995 10:38:42a A---     37,992 SAFARI\GEOGRAPH\02BASBG.WMF
01-30-1995 10:38:44a A---    108,080 SAFARI\GEOGRAPH\03BASBG.WMF
01-30-1995 10:38:44a A---    107,950 SAFARI\GEOGRAPH\04BASBG.WMF
01-30-1995 10:38:44a A---      9,064 SAFARI\GEOGRAPH\05BASBG.WMF
01-30-1995 10:38:44a A---     34,350 SAFARI\GEOGRAPH\06BASBG.WMF
01-30-1995 10:38:44a A---     19,634 SAFARI\GEOGRAPH\07BASBG.WMF
01-30-1995 10:38:44a A---     27,536 SAFARI\GEOGRAPH\08BASBG.WMF
01-30-1995 10:38:44a A---     34,712 SAFARI\GEOGRAPH\13BASBG.WMF
01-30-1995 10:38:46a A---     13,254 SAFARI\GEOGRAPH\14BASBG.WMF
01-30-1995 10:38:46a A---     19,890 SAFARI\GEOGRAPH\15BASBG.WMF
01-30-1995 10:38:46a A---     25,370 SAFARI\GEOGRAPH\16BASBG.WMF
01-30-1995 10:38:46a A---     20,548 SAFARI\GEOGRAPH\17BASBG.WMF
01-30-1995 10:38:46a A---     39,856 SAFARI\GEOGRAPH\18BASBG.WMF
01-30-1995 10:38:42a A---     26,636 SAFARI\GEOGRAPH\01BASBG.WMF
01-30-1995 10:38:46a A---        178 SAFARI\GEOGRAPH\STAR_BLK.WMF
01-30-1995 10:38:48a A---    118,370 SAFARI\GEOGRAPH\ANIM\01BASAN.ANI
01-30-1995 10:38:48a A---     59,399 SAFARI\GEOGRAPH\ANIM\08BASAN.ANI
01-30-1995 10:38:50a A---     12,686 SAFARI\GEOGRAPH\B_BOX\08BAS01.WMF
01-30-1995 10:38:50a A---     11,018 SAFARI\GEOGRAPH\B_BOX\08BAS02.WMF
01-30-1995 10:38:50a A---      8,220 SAFARI\GEOGRAPH\B_BOX\08BAS03.WMF
01-30-1995 10:38:50a A---     16,604 SAFARI\GEOGRAPH\B_BOX\08BAS04.WMF
01-30-1995 10:38:50a A---     11,026 SAFARI\GEOGRAPH\B_BOX\08BAS05.WMF
01-30-1995 10:38:50a A---      4,152 SAFARI\GEOGRAPH\B_BOX\08BAS06.WMF
01-30-1995 10:38:50a A---      3,684 SAFARI\GEOGRAPH\B_BOX\08BAS07.WMF
01-30-1995 10:38:50a A---     14,436 SAFARI\GEOGRAPH\B_BOX\08BAS08.WMF
01-30-1995 10:38:50a A---     12,012 SAFARI\GEOGRAPH\B_BOX\08BAS09.WMF
01-30-1995 10:38:50a A---      9,190 SAFARI\GEOGRAPH\B_BOX\08BAS10.WMF
01-30-1995 10:38:50a A---     17,546 SAFARI\GEOGRAPH\B_BOX\08BAS13.WMF
01-30-1995 10:38:52a A---     19,376 SAFARI\GEOGRAPH\B_BOX\08BAS15.WMF
01-30-1995 10:38:52a A---     13,816 SAFARI\GEOGRAPH\B_BOX\08BAS16.WMF
01-30-1995 10:38:52a A---     13,376 SAFARI\GEOGRAPH\B_BOX\08BAS17.WMF
01-30-1995 10:38:52a A---     11,888 SAFARI\GEOGRAPH\B_BOX\08BAS19.WMF
01-30-1995 10:38:52a A---     13,542 SAFARI\GEOGRAPH\B_BOX\08BAS20.WMF
01-30-1995 10:38:54a A---     10,267 SAFARI\...\GLOSSARY\01BASMV.MVB
01-30-1995 10:38:54a A---     11,738 SAFARI\...\GLOSSARY\02BASMV.MVB
01-30-1995 10:38:54a A---     10,018 SAFARI\...\GLOSSARY\03BASMV.MVB
01-30-1995 10:38:54a A---      8,415 SAFARI\...\GLOSSARY\04BASMV.MVB
01-30-1995 10:38:54a A---     10,032 SAFARI\...\GLOSSARY\05BASMV.MVB
01-30-1995 10:38:54a A---     11,915 SAFARI\...\GLOSSARY\06BASMV.MVB
01-30-1995 10:38:54a A---     10,831 SAFARI\...\GLOSSARY\07BASMV.MVB
01-30-1995 10:38:54a A---     10,333 SAFARI\...\GLOSSARY\08BASMV.MVB
01-30-1995 10:38:54a A---     12,982 SAFARI\...\GLOSSARY\09BASMV.MVB
01-30-1995 10:38:54a A---     12,626 SAFARI\...\GLOSSARY\10BASMV.MVB
01-30-1995 10:38:54a A---     12,967 SAFARI\...\GLOSSARY\11BASMV.MVB
01-30-1995 10:38:54a A---     12,508 SAFARI\...\GLOSSARY\12BASMV.MVB
01-30-1995 10:38:54a A---     13,967 SAFARI\...\GLOSSARY\13BASMV.MVB
01-30-1995 10:38:54a A---      9,367 SAFARI\...\GLOSSARY\14BASMV.MVB
01-30-1995 10:38:54a A---     27,239 SAFARI\...\GLOSSARY\15BASMV.MVB
01-30-1995 10:38:56a A---     13,059 SAFARI\...\GLOSSARY\16BASMV.MVB
01-30-1995 10:38:56a A---     13,021 SAFARI\...\GLOSSARY\17BASMV.MVB
01-30-1995 10:38:56a A---     13,354 SAFARI\...\GLOSSARY\18BASMV.MVB
01-30-1995 10:38:34a A---     18,698 SAFARI\ANIMALS\19ANLBG.WMF
01-30-1995 10:38:34a A---        250 SAFARI\ANIMALS\19ANLFRM.WMF
01-30-1995 10:38:34a A---        512 SAFARI\ANIMALS\PREVBAR1.WMF
01-30-1995 10:38:38a A---    228,499 SAFARI\ANIMALS\ANIM\19ANLAN.ANI
01-30-1995 10:38:38a A---     20,136 SAFARI\ANIMALS\B_BOX\19ANL01.WMF
01-30-1995 10:38:38a A---      7,410 SAFARI\ANIMALS\B_BOX\19ANL02.WMF
01-30-1995 10:38:38a A---     19,142 SAFARI\ANIMALS\B_BOX\19ANL03.WMF
01-30-1995 10:38:38a A---     15,198 SAFARI\ANIMALS\B_BOX\19ANL04.WMF
01-30-1995 10:38:38a A---     10,112 SAFARI\ANIMALS\B_BOX\19ANL06.WMF
01-30-1995 10:38:40a A---     28,838 SAFARI\ANIMALS\B_BOX\19ANL07.WMF
01-30-1995 10:38:40a A---     16,328 SAFARI\ANIMALS\B_BOX\19ANL08.WMF
01-30-1995 10:38:40a A---      8,182 SAFARI\ANIMALS\B_BOX\19ANL09.WMF
01-30-1995 10:38:40a A---     34,252 SAFARI\ANIMALS\B_BOX\19ANL10.WMF
01-30-1995 10:38:40a A---      6,118 SAFARI\ANIMALS\B_BOX\19ANL11.WMF
01-30-1995 10:38:40a A---      7,984 SAFARI\ANIMALS\B_BOX\19ANL12.WMF
 
01-30-1995 10:38:40a A---     21,532 SAFARI\ANIMALS\B_BOX\19ANL13.WMF
01-30-1995 10:38:42a A---      7,511 SAFARI\...\GLOSSARY\00ANLMV.MVB
01-30-1995 10:38:56a A---     37,022 SAFARI\SCIENCE\12SCIBG.WMF
01-30-1995 10:38:58a A---    145,029 SAFARI\SCIENCE\ANIM\12SCIAN.ANI
               100 Files      4,830,473 bytes
 
How to Extract a File from a Cabinet File
-----------------------------------------
 
Make sure the TMP environment variable is set to the same path as your
TEMP environment variable. Type "set" (without the quotation marks) at the
MS-DOS command prompt to see the current environment settings. For example,
if your TEMP variable is equal to C:\TEMP, then type the following at the
MS-DOS command prompt and press ENTER:
 
   set tmp=c:\temp
 
To display the contents of a cabinet (CAB) file without extracting the
files, type the following and press ENTER:
 
   extract /d a:\u1.cab
 
To extract the file UTOPIA.DLL from U1.CAB to the C:\MSBOB directory,
type the following and press ENTER:
 
   extract a:\u1.cab /l c:\msbob utopia.dll
 
To obtain more information about EXTRACT command line parameters, type the
following and press ENTER:
 
   extract /?
KBCategory: kbref kbusage
KBSubcategory: B_Shell
 
Additional reference words: w_bob
=============================================================================
Copyright Microsoft Corporation 1995.